This is the latest recevied weather packets stored in our database for station/object W6JCZ-13. If no packets are shown the sender has not sent any weather packets the latest 10 day(s).
| Time | Temp. | Humidity | Pressure | Rain* | Wind** | Luminosity | Snow |
|---|---|---|---|---|---|---|---|
| 1777967117 | 12.22° C | 91% | 1013 hPa | 1.52 mm | - | - | - |
| 1777966517 | 11.67° C | 91% | 1013 hPa | 1.27 mm | - | - | - |
| 1777965917 | 11.67° C | 90% | 1012.7 hPa | 1.27 mm | - | - | - |
| 1777965316 | 11.67° C | 90% | 1012.9 hPa | 1.02 mm | - | - | - |
| 1777964717 | 11.67° C | 90% | 1012.9 hPa | 0.51 mm | - | - | - |
| 1777964117 | 11.67° C | 90% | 1012.8 hPa | 0.76 mm | - | - | - |
| 1777963517 | 11.67° C | 90% | 1012.7 hPa | 0.51 mm | - | - | - |
| 1777962917 | 11.67° C | 90% | 1012.7 hPa | 0.51 mm | - | - | - |
| 1777962317 | 11.67° C | 90% | 1012.9 hPa | 0.51 mm | - | - | - |
| 1777961717 | 11.67° C | 90% | 1013.1 hPa | 1.27 mm | - | - | - |
| 1777961117 | 11.67° C | 89% | 1013.1 hPa | 1.78 mm | - | - | - |
| 1777960518 | 11.67° C | 90% | 1013 hPa | 1.78 mm | - | - | - |
| 1777959917 | 11.67° C | 89% | 1013.1 hPa | 2.29 mm | - | - | - |
| 1777959317 | 11.67° C | 89% | 1013.3 hPa | 2.54 mm | - | - | - |
| 1777958717 | 11.67° C | 89% | 1013.3 hPa | 2.79 mm | - | - | - |
| 1777958117 | 11.67° C | 89% | 1013.1 hPa | 2.29 mm | - | - | - |
| 1777957517 | 11.67° C | 89% | 1012.8 hPa | 2.29 mm | - | - | - |
| 1777956917 | 11.67° C | 89% | 1013.1 hPa | 2.79 mm | - | - | - |
| 1777956317 | 11.67° C | 89% | 1012.7 hPa | 2.79 mm | - | - | - |
| 1777955717 | 12.22° C | 88% | 1012.9 hPa | 3.81 mm | - | - | - |
| 1777955117 | 12.22° C | 88% | 1012.8 hPa | 4.06 mm | - | - | - |
| 1777954517 | 12.22° C | 88% | 1012.9 hPa | 4.57 mm | - | - | - |
| 1777953917 | 12.22° C | 88% | 1013.2 hPa | 4.57 mm | - | - | - |
| 1777953317 | 12.78° C | 88% | 1013.4 hPa | 4.06 mm | - | - | - |
| 1777952717 | 12.78° C | 88% | 1013.6 hPa | 3.56 mm | - | - | - |
* Rain latest hour (hover to see other rain measurements)
** Current wind speed in m/s (hover to see current wind gust speed)